Location: Perryvale
(54.4667°N, 113.3833°W)
Time: 07:59:49
(UTC+00:00)

deb Explorer IX - Pass Details

Date: 27 May 2024
Orbit: 511 x 884 km, 38.7° (Epoch: 23 June)

Event Time Altitude Azimuth Distance (km) Brightness Sun altitude
Rises 04:45:32 0° 231° (SW) 3,154 ? -6.3°
Reaches altitude 10° 04:49:35 10° 201° (SSW) 2,128 ? -6.7°
Maximum altitude 04:51:26 12° 179° (S) 1,946 ? -6.8°
Drops below altitude 10° 04:53:13 10° 157° (SSE) 2,034 ? -7.0°
Enters shadow 04:53:51 - 150° (SSE) 2,124 ? -7.0°
